Погода в Новоозерянке

Украина / Житомирская область     51°12′48″N   28°00′06″E
темп.,
°C
ветер,
м/с
пор.,
м/с
влажн.,
%
обл.,
%
осадки,
мм/ч
давл.,
гПа
погр.,
м
16 мая, вс
вс1600:00+10юз22936 0.0 101118
03:00+9юз12954 0.0 101113
06:00+9ю12975 0.0 101123
09:00+16ююв34705 0.0 1011539
12:00+20ююв4553100 0.0 10111397
15:00+21ююв5557100 0.5 10101454
18:00+18ююв4776100 1.1 1009701
21:00+14юв3991100 1.6 1009190
17 мая, пн
пн1700:00+12юв2694100 0.3 1008113
03:00+12юв279670 1.2 1009144
06:00+11ююз2394100 0.1 100859
09:00+16в2482100 0.1 1008312
12:00+18вюв3473100 2.8 1006719
15:00+18в3471100 3.3 1005537
18:00+14сз0193100 1.1 100487
21:00+13ссз249598 1.9 1002120
18 мая, вт
вт1800:00+13ссз2396100 0.1 100180
03:00+13сз2598100 1.4 999147
06:00+13юз2398100 0.1 99992
09:00+15ю238727 0.1 1000297
12:00+19ююв457583 3.7 1000878
15:00+16ююв3685100 6.3 1000220
18:00+16св1187100 1.3 100018
21:00+14ссз2289100 2.1 100125
19 мая, ср
ср1900:00+13сз4998100 0.2 1001438
03:00+12з4898100 0.4 1001452
06:00+11зсз61297100 1.9 1001678
09:00+11зсз61396100 3.8 1002961
12:00+10зсз71395100 1.6 10041128
15:00+10зсз71492100 2.4 10051024
18:00+11зсз61187100 0.2 10071133
21:00+10зсз41185100 0.2 1008933
20 мая, чт
чт2000:00+9з41195100 0.0 1009538
03:00+8з3998100 0.0 1009276
06:00+7з289824 0.0 1009215
09:00+13з357128 0.0 1010620
12:00+17сз335286 0.0 10091619
15:00+16с3560100 0.2 1010445
18:00+16ссв3560100 0.1 1009850
21:00+12св2874100 0.1 1010206